This demonstration page uses our WeatherBlox Daily Observations layout. Learn more.

Left ArrowRight Arrow

Hourly Observations for May 26, 2017

Temp ( °F °C ) Dew Point ( °F °C ) Humidity (%) Winds ( mph kmh ) Pressure ( in mb ) Visibility ( mi km ) Precip ( " mm )
12:53 am 00:53 Clear 60 15.6 54 12.2 80 80 SW 5 7 29.93 1013 10 16 0.00 0.00
1:53 am 01:53 Clear 59 15 54 12.2 83 83 SSW 3 6 29.94 1014 10 16 0.00 0.00
2:53 am 02:53 Clear 56 13.3 55 12.8 97 97 Calm 29.94 1014 10 16 0.00 0.00
3:53 am 03:53 Clear 56 13.3 54 12.2 93 93 Calm 29.95 1014 10 16 0.00 0.00
4:53 am 04:53 Clear 55 12.8 53 11.7 93 93 SSW 3 6 29.96 1015 10 16 0.00 0.00
5:53 am 05:53 Clear 55 12.8 53 11.7 93 93 Calm 29.98 1015 10 16 0.00 0.00
6:53 am 06:53 Sunny 53 11.7 52 11.1 96 96 Calm 30.00 1016 10 16 0.00 0.00
7:53 am 07:53 Sunny 56 13.3 55 12.8 97 97 Calm 30.01 1016 10 16 0.00 0.00
8:53 am 08:53 Sunny 61 16.1 56 13.3 84 84 Calm 30.03 1017 10 16 0.00 0.00
9:53 am 09:53 Sunny 68 20 56 13.3 65 65 VRB 3 6 30.04 1017 10 16 0.00 0.00
10:53 am 10:53 Sunny 72 22.2 55 12.8 55 55 WSW 8 13 30.03 1017 10 16 0.00 0.00
11:53 am 11:53 Sunny 74 23.3 56 13.3 54 54 SW 8 13 30.03 1017 10 16 0.00 0.00
12:53 pm 12:53 Sunny 78 25.6 58 14.4 50 50 VRB 7 11 30.03 1017 10 16 0.00 0.00
1:53 pm 13:53 Sunny 79 26.1 59 15 50 50 NW 9 15 30.02 1017 10 16 0.00 0.00
2:53 pm 14:53 Sunny 81 27.2 60 15.6 49 49 VRB 6 9 30.01 1016 10 16 0.00 0.00
3:53 pm 15:53 Sunny 82 27.8 60 15.6 47 47 WNW 7 11 29.99 1016 10 16 0.00 0.00
4:53 pm 16:53 Sunny 84 28.9 61 16.1 46 46 W 9 15 29.96 1015 10 16 0.00 0.00
5:53 pm 17:53 Sunny 84 28.9 61 16.1 46 46 WSW 9 15 29.95 1014 10 16 0.00 0.00
6:53 pm 18:53 Sunny 83 28.3 61 16.1 48 48 SSW 9 15 29.95 1014 10 16 0.00 0.00
7:53 pm 19:53 Sunny 82 27.8 61 16.1 49 49 WSW 9 15 29.95 1014 10 16 0.00 0.00
8:53 pm 20:53 Clear 78 25.6 62 16.7 58 58 SSW 6 9 29.95 1014 10 16 0.00 0.00
9:53 pm 21:53 Clear 76 24.4 63 17.2 64 64 SSW 5 7 29.96 1015 10 16 0.00 0.00
10:53 pm 22:53 Clear 74 23.3 64 17.8 71 71 Calm 29.98 1015 10 16 0.00 0.00
11:53 pm 23:53 Clear 72 22.2 64 17.8 76 76 Calm 29.99 1016 10 16 0.00 0.00

Powered by AerisWeather